Wetterdaten: Woche 02.01.17 - 08.01.17 (KW1)
Datum Zeit Temperatur Luftfeuchte Luftdruck Niederschlag Windrichtung Sonnenschein Solar Wind
02.01.2017 00:00 -3,2 C 98 % 1021,6 hPa 0,0 l/m SW 0,00 h 0 W/m 7,0 km/h (2 Bft)
02.01.2017 01:00 -3,2 C 98 % 1021,2 hPa 0,0 l/m SW 0,00 h 0 W/m 11,3 km/h (2 Bft)
02.01.2017 02:00 -3,2 C 98 % 1021,1 hPa 0,0 l/m SW 0,00 h 0 W/m 10,5 km/h (2 Bft)
02.01.2017 03:00 -3,2 C 98 % 1021,2 hPa 0,0 l/m SW 0,00 h 0 W/m 6,8 km/h (2 Bft)
02.01.2017 04:00 -3,2 C 98 % 1020,9 hPa 0,0 l/m SW 0,00 h 0 W/m 10,5 km/h (2 Bft)
02.01.2017 05:00 -3,5 C 98 % 1020,8 hPa 0,0 l/m SW 0,00 h 0 W/m 6,0 km/h (2 Bft)
02.01.2017 06:00 -3,7 C 98 % 1021,3 hPa 0,0 l/m N 0,00 h 0 W/m 0,7 km/h (0 Bft)
02.01.2017 07:00 -3,7 C 98 % 1021,6 hPa 0,0 l/m SW 0,00 h 0 W/m 3,3 km/h (1 Bft)
02.01.2017 08:00 -3,3 C 98 % 1022,0 hPa 0,0 l/m SW 0,00 h 13 W/m 5,3 km/h (1 Bft)
02.01.2017 09:00 -3,0 C 98 % 1022,2 hPa 0,0 l/m SW 0,00 h 47 W/m 7,6 km/h (2 Bft)
02.01.2017 10:00 -2,3 C 99 % 1022,1 hPa 0,0 l/m SW 0,00 h 68 W/m 7,9 km/h (2 Bft)
02.01.2017 11:00 -1,5 C 99 % 1022,0 hPa 0,0 l/m S-SW 0,00 h 104 W/m 7,4 km/h (2 Bft)
02.01.2017 12:00 -0,9 C 99 % 1021,7 hPa 0,0 l/m S-SW 0,25 h 148 W/m 10,3 km/h (2 Bft)
02.01.2017 13:00 0,1 C 99 % 1021,4 hPa 0,0 l/m S-SW 0,58 h 185 W/m 6,2 km/h (2 Bft)
02.01.2017 14:00 0,0 C 98 % 1021,3 hPa 0,0 l/m S-SW 0,00 h 45 W/m 9,1 km/h (2 Bft)
02.01.2017 15:00 -0,2 C 98 % 1021,8 hPa 0,0 l/m S-SW 0,00 h 16 W/m 4,3 km/h (1 Bft)
02.01.2017 16:00 -0,2 C 98 % 1022,3 hPa 1,0 l/m S-SW 0,00 h 6 W/m 5,3 km/h (1 Bft)
02.01.2017 17:00 -0,3 C 98 % 1022,8 hPa 0,8 l/m N 0,00 h 0 W/m 2,5 km/h (1 Bft)
02.01.2017 18:00 -0,4 C 98 % 1022,8 hPa 0,4 l/m N 0,00 h 0 W/m 0,0 km/h (0 Bft)
02.01.2017 19:00 -0,6 C 98 % 1023,2 hPa 0,2 l/m N 0,00 h 0 W/m 0,0 km/h (0 Bft)
02.01.2017 20:00 -0,8 C 98 % 1023,7 hPa 0,0 l/m N 0,00 h 0 W/m 0,0 km/h (0 Bft)
02.01.2017 21:00 -1,1 C 98 % 1024,4 hPa 0,0 l/m N 0,00 h 0 W/m 0,0 km/h (0 Bft)
02.01.2017 22:00 -1,6 C 98 % 1024,6 hPa 0,0 l/m N 0,00 h 0 W/m 0,0 km/h (0 Bft)
02.01.2017 23:00 -2,1 C 98 % 1025,0 hPa 0,0 l/m N 0,00 h 0 W/m 0,0 km/h (0 Bft)
03.01.2017 00:00 -2,3 C 97 % 1025,2 hPa 0,0 l/m N 0,00 h 0 W/m 0,0 km/h (0 Bft)
03.01.2017 01:00 -2,3 C 98 % 1025,3 hPa 0,0 l/m N 0,00 h 0 W/m 0,0 km/h (0 Bft)
03.01.2017 02:00 -2,4 C 98 % 1025,7 hPa 0,0 l/m N 0,00 h 0 W/m 0,0 km/h (0 Bft)
03.01.2017 03:00 -2,6 C 97 % 1026,2 hPa 0,0 l/m N 0,00 h 0 W/m 0,0 km/h (0 Bft)
03.01.2017 04:00 -3,1 C 97 % 1026,1 hPa 0,0 l/m N 0,00 h 0 W/m 0,0 km/h (0 Bft)
03.01.2017 05:00 -4,4 C 97 % 1026,5 hPa 0,0 l/m N 0,00 h 0 W/m 0,0 km/h (0 Bft)
03.01.2017 06:00 -5,9 C 96 % 1026,9 hPa 0,0 l/m N 0,00 h 0 W/m 0,0 km/h (0 Bft)
03.01.2017 07:00 -7,1 C 96 % 1027,3 hPa 0,0 l/m N 0,00 h 0 W/m 0,0 km/h (0 Bft)
03.01.2017 08:00 -8,1 C 96 % 1027,7 hPa 0,0 l/m N 0,33 h 33 W/m 0,0 km/h (0 Bft)
03.01.2017 09:00 -8,3 C 96 % 1027,8 hPa 0,0 l/m N 1,00 h 244 W/m 0,0 km/h (0 Bft)
03.01.2017 10:00 -7,1 C 96 % 1028,0 hPa 0,0 l/m N 1,00 h 289 W/m 0,0 km/h (0 Bft)
03.01.2017 11:00 -5,1 C 98 % 1028,1 hPa 0,0 l/m N 1,00 h 278 W/m 0,0 km/h (0 Bft)
03.01.2017 12:00 -2,5 C 98 % 1027,7 hPa 0,0 l/m N 1,00 h 291 W/m 0,0 km/h (0 Bft)
03.01.2017 13:00 -0,6 C 97 % 1027,0 hPa 0,0 l/m SW 1,00 h 260 W/m 3,2 km/h (1 Bft)
03.01.2017 14:00 0,6 C 93 % 1026,5 hPa 0,0 l/m SW 1,00 h 168 W/m 4,6 km/h (1 Bft)
03.01.2017 15:00 0,6 C 87 % 1026,4 hPa 0,0 l/m SW 0,00 h 57 W/m 2,4 km/h (1 Bft)
03.01.2017 16:00 -0,9 C 87 % 1026,4 hPa 0,0 l/m SW 0,08 h 13 W/m 0,7 km/h (0 Bft)
03.01.2017 17:00 -2,8 C 91 % 1026,0 hPa 0,0 l/m SW 0,00 h 0 W/m 6,7 km/h (2 Bft)
03.01.2017 18:00 -3,2 C 94 % 1025,9 hPa 0,0 l/m SW 0,00 h 0 W/m 7,5 km/h (2 Bft)
03.01.2017 19:00 -3,3 C 95 % 1025,9 hPa 0,0 l/m SW 0,00 h 0 W/m 9,3 km/h (2 Bft)
03.01.2017 20:00 -2,5 C 96 % 1025,5 hPa 0,0 l/m SW 0,00 h 0 W/m 19,8 km/h (4 Bft)
03.01.2017 21:00 -2,6 C 95 % 1025,3 hPa 0,0 l/m SW 0,00 h 0 W/m 16,0 km/h (3 Bft)
03.01.2017 22:00 -3,0 C 95 % 1024,8 hPa 0,0 l/m SW 0,00 h 0 W/m 13,8 km/h (3 Bft)
03.01.2017 23:00 -3,3 C 95 % 1024,3 hPa 0,0 l/m SW 0,00 h 0 W/m 13,7 km/h (3 Bft)
04.01.2017 00:00 -3,5 C 95 % 1023,3 hPa 0,0 l/m SW 0,00 h 0 W/m 12,1 km/h (2 Bft)
04.01.2017 01:00 -3,0 C 94 % 1022,5 hPa 0,0 l/m SW 0,00 h 0 W/m 16,0 km/h (3 Bft)
04.01.2017 02:00 -2,8 C 92 % 1022,0 hPa 0,0 l/m W-SW 0,00 h 0 W/m 13,3 km/h (3 Bft)
04.01.2017 03:00 -2,6 C 92 % 1021,8 hPa 0,0 l/m W-SW 0,00 h 0 W/m 10,2 km/h (2 Bft)
04.01.2017 04:00 -2,3 C 91 % 1021,4 hPa 0,0 l/m W-SW 0,00 h 0 W/m 15,0 km/h (3 Bft)
04.01.2017 05:00 -2,1 C 90 % 1020,5 hPa 0,0 l/m SW 0,00 h 0 W/m 23,3 km/h (4 Bft)
04.01.2017 06:00 -2,2 C 91 % 1019,7 hPa 0,0 l/m SW 0,00 h 0 W/m 24,1 km/h (4 Bft)
04.01.2017 07:00 -2,0 C 91 % 1019,6 hPa 0,0 l/m W-SW 0,00 h 0 W/m 26,3 km/h (4 Bft)
04.01.2017 08:00 -1,5 C 90 % 1019,2 hPa 0,0 l/m SW 0,00 h 9 W/m 35,9 km/h (5 Bft)
04.01.2017 09:00 -1,2 C 89 % 1018,8 hPa 0,0 l/m W-SW 0,00 h 27 W/m 37,0 km/h (5 Bft)
04.01.2017 10:00 -0,8 C 88 % 1018,1 hPa 0,0 l/m W-SW 0,00 h 35 W/m 36,6 km/h (5 Bft)
04.01.2017 11:00 -0,3 C 87 % 1017,7 hPa 0,0 l/m W 0,00 h 48 W/m 36,1 km/h (5 Bft)
04.01.2017 12:00 0,1 C 88 % 1016,7 hPa 0,0 l/m W 0,00 h 87 W/m 33,7 km/h (5 Bft)
04.01.2017 13:00 0,3 C 87 % 1015,9 hPa 0,0 l/m W-SW 0,00 h 69 W/m 31,1 km/h (5 Bft)
04.01.2017 14:00 0,2 C 88 % 1015,8 hPa 0,0 l/m W 0,00 h 58 W/m 28,8 km/h (5 Bft)
04.01.2017 15:00 0,0 C 90 % 1015,7 hPa 0,0 l/m W-SW 0,00 h 33 W/m 30,9 km/h (5 Bft)
04.01.2017 16:00 -0,6 C 93 % 1015,7 hPa 0,2 l/m W-SW 0,00 h 5 W/m 30,9 km/h (5 Bft)
04.01.2017 17:00 -0,7 C 95 % 1015,8 hPa 0,0 l/m W 0,00 h 0 W/m 22,0 km/h (4 Bft)
04.01.2017 18:00 -0,8 C 95 % 1016,0 hPa 0,0 l/m W 0,00 h 0 W/m 15,3 km/h (3 Bft)
04.01.2017 19:00 -0,8 C 95 % 1016,2 hPa 0,2 l/m W 0,00 h 0 W/m 15,6 km/h (3 Bft)
04.01.2017 20:00 -0,8 C 95 % 1016,6 hPa 0,4 l/m W 0,00 h 0 W/m 11,4 km/h (2 Bft)
04.01.2017 21:00 -0,8 C 95 % 1016,7 hPa 0,0 l/m W 0,00 h 0 W/m 18,1 km/h (3 Bft)
04.01.2017 22:00 -0,7 C 92 % 1016,8 hPa 0,0 l/m W 0,00 h 0 W/m 18,6 km/h (3 Bft)
04.01.2017 23:00 -0,8 C 93 % 1016,8 hPa 0,2 l/m W-SW 0,00 h 0 W/m 12,6 km/h (3 Bft)
05.01.2017 00:00 -0,9 C 94 % 1017,1 hPa 0,4 l/m W-NW 0,00 h 0 W/m 15,0 km/h (3 Bft)
05.01.2017 01:00 -0,8 C 95 % 1017,7 hPa 0,6 l/m N-NW 0,00 h 0 W/m 11,7 km/h (2 Bft)
05.01.2017 02:00 -1,3 C 95 % 1018,6 hPa 0,6 l/m N-NW 0,00 h 0 W/m 11,5 km/h (2 Bft)
05.01.2017 03:00 -1,6 C 95 % 1019,3 hPa 0,0 l/m N-NW 0,00 h 0 W/m 12,0 km/h (2 Bft)
05.01.2017 04:00 -2,3 C 94 % 1020,3 hPa 0,0 l/m N-NW 0,00 h 0 W/m 11,9 km/h (2 Bft)
05.01.2017 05:00 -2,6 C 94 % 1020,8 hPa 0,0 l/m NW 0,00 h 0 W/m 14,6 km/h (3 Bft)
05.01.2017 06:00 -2,3 C 93 % 1021,4 hPa 0,0 l/m W-NW 0,00 h 0 W/m 13,4 km/h (3 Bft)
05.01.2017 07:00 -2,2 C 93 % 1022,1 hPa 0,0 l/m N-NW 0,00 h 0 W/m 5,9 km/h (2 Bft)
05.01.2017 08:00 -2,4 C 93 % 1022,6 hPa 0,0 l/m NW 0,00 h 14 W/m 4,5 km/h (1 Bft)
05.01.2017 09:00 -2,3 C 93 % 1023,5 hPa 0,2 l/m NO 0,00 h 43 W/m 1,9 km/h (1 Bft)
05.01.2017 10:00 -2,1 C 93 % 1024,0 hPa 0,2 l/m O-NO 0,08 h 62 W/m 2,0 km/h (1 Bft)
05.01.2017 11:00 -1,7 C 93 % 1024,1 hPa 0,4 l/m N-NO 0,17 h 75 W/m 9,8 km/h (2 Bft)
05.01.2017 12:00 -2,7 C 93 % 1024,5 hPa 1,4 l/m N-NO 0,25 h 128 W/m 13,5 km/h (3 Bft)
05.01.2017 13:00 -1,0 C 91 % 1024,8 hPa 1,6 l/m N 0,75 h 264 W/m 9,0 km/h (2 Bft)
05.01.2017 14:00 -1,0 C 84 % 1025,5 hPa 0,2 l/m N-NO 0,50 h 168 W/m 8,7 km/h (2 Bft)
05.01.2017 15:00 -1,8 C 86 % 1026,7 hPa 0,0 l/m N-NO 0,17 h 50 W/m 13,4 km/h (3 Bft)
05.01.2017 16:00 -3,3 C 90 % 1027,9 hPa 0,4 l/m N 0,00 h 9 W/m 7,1 km/h (2 Bft)
05.01.2017 17:00 -4,3 C 90 % 1029,0 hPa 0,0 l/m N-NO 0,00 h 0 W/m 5,5 km/h (1 Bft)
05.01.2017 18:00 -5,3 C 90 % 1029,9 hPa 0,0 l/m N-NO 0,00 h 0 W/m 2,1 km/h (1 Bft)
05.01.2017 19:00 -6,3 C 90 % 1030,8 hPa 0,0 l/m N-NO 0,00 h 0 W/m 6,4 km/h (2 Bft)
05.01.2017 20:00 -6,6 C 91 % 1031,8 hPa 0,0 l/m N 0,00 h 0 W/m 7,0 km/h (2 Bft)
05.01.2017 21:00 -7,2 C 91 % 1032,6 hPa 0,0 l/m N 0,00 h 0 W/m 3,6 km/h (1 Bft)
05.01.2017 22:00 -6,9 C 93 % 1033,6 hPa 0,0 l/m N 0,00 h 0 W/m 4,7 km/h (1 Bft)
05.01.2017 23:00 -6,8 C 92 % 1034,2 hPa 0,0 l/m N 0,00 h 0 W/m 7,4 km/h (2 Bft)
06.01.2017 00:00 -7,5 C 92 % 1034,6 hPa 0,0 l/m N 0,00 h 0 W/m 3,3 km/h (1 Bft)
06.01.2017 01:00 -8,5 C 92 % 1035,3 hPa 0,0 l/m N 0,00 h 0 W/m 0,4 km/h (0 Bft)
06.01.2017 02:00 -7,9 C 93 % 1035,8 hPa 0,0 l/m NO 0,00 h 0 W/m 4,0 km/h (1 Bft)
06.01.2017 03:00 -7,1 C 93 % 1036,1 hPa 0,0 l/m NO 0,00 h 0 W/m 6,6 km/h (2 Bft)
06.01.2017 04:00 -7,4 C 91 % 1036,3 hPa 0,0 l/m N 0,00 h 0 W/m 1,7 km/h (1 Bft)
06.01.2017 05:00 -8,2 C 91 % 1036,6 hPa 0,0 l/m N 0,00 h 0 W/m 0,0 km/h (0 Bft)
06.01.2017 06:00 -8,6 C 91 % 1037,0 hPa 0,0 l/m NO 0,00 h 0 W/m 0,8 km/h (0 Bft)
06.01.2017 07:00 -9,1 C 91 % 1037,8 hPa 0,0 l/m N 0,00 h 0 W/m 1,9 km/h (1 Bft)
06.01.2017 08:00 -10,1 C 91 % 1038,7 hPa 0,0 l/m NO 0,00 h 17 W/m 1,7 km/h (1 Bft)
06.01.2017 09:00 -9,2 C 93 % 1039,3 hPa 0,0 l/m NO 0,00 h 65 W/m 4,9 km/h (1 Bft)
06.01.2017 10:00 -8,3 C 93 % 1040,0 hPa 0,0 l/m NO 0,25 h 140 W/m 6,0 km/h (2 Bft)
06.01.2017 11:00 -8,0 C 91 % 1039,6 hPa 0,0 l/m O-NO 0,42 h 226 W/m 6,4 km/h (2 Bft)
06.01.2017 12:00 -6,0 C 88 % 1038,8 hPa 0,0 l/m O-NO 1,00 h 313 W/m 3,2 km/h (1 Bft)
06.01.2017 13:00 -4,9 C 81 % 1038,4 hPa 0,0 l/m O-NO 1,00 h 270 W/m 5,1 km/h (1 Bft)
06.01.2017 14:00 -5,0 C 77 % 1038,2 hPa 0,0 l/m NO 1,00 h 175 W/m 6,0 km/h (2 Bft)
06.01.2017 15:00 -5,9 C 76 % 1038,5 hPa 0,0 l/m NO 0,00 h 60 W/m 8,2 km/h (2 Bft)
06.01.2017 16:00 -7,3 C 81 % 1039,0 hPa 0,0 l/m NO 0,08 h 14 W/m 5,7 km/h (1 Bft)
06.01.2017 17:00 -9,0 C 83 % 1039,4 hPa 0,0 l/m NO 0,00 h 0 W/m 3,7 km/h (1 Bft)
06.01.2017 18:00 -10,7 C 83 % 1039,5 hPa 0,0 l/m N 0,00 h 0 W/m 0,0 km/h (0 Bft)
06.01.2017 19:00 -11,9 C 84 % 1039,4 hPa 0,0 l/m N 0,00 h 0 W/m 0,0 km/h (0 Bft)
06.01.2017 20:00 -12,8 C 85 % 1039,0 hPa 0,0 l/m N 0,00 h 0 W/m 0,3 km/h (0 Bft)
06.01.2017 21:00 -13,2 C 87 % 1038,7 hPa 0,0 l/m NO 0,00 h 0 W/m 1,2 km/h (1 Bft)
06.01.2017 22:00 -13,6 C 88 % 1038,7 hPa 0,0 l/m NO 0,00 h 0 W/m 1,6 km/h (1 Bft)
06.01.2017 23:00 -13,8 C 88 % 1038,8 hPa 0,0 l/m N 0,00 h 0 W/m 2,7 km/h (1 Bft)
07.01.2017 00:00 -14,3 C 88 % 1038,5 hPa 0,0 l/m N 0,00 h 0 W/m 0,0 km/h (0 Bft)
07.01.2017 01:00 -14,9 C 89 % 1038,0 hPa 0,0 l/m N 0,00 h 0 W/m 0,3 km/h (0 Bft)
07.01.2017 02:00 -15,3 C 88 % 1037,9 hPa 0,0 l/m N 0,00 h 0 W/m 0,0 km/h (0 Bft)
07.01.2017 03:00 -15,8 C 88 % 1037,7 hPa 0,0 l/m N 0,00 h 0 W/m 1,1 km/h (0 Bft)
07.01.2017 04:00 -16,0 C 89 % 1037,8 hPa 0,0 l/m N 0,00 h 0 W/m 0,9 km/h (0 Bft)
07.01.2017 05:00 -16,2 C 89 % 1037,6 hPa 0,0 l/m N 0,00 h 0 W/m 0,0 km/h (0 Bft)
07.01.2017 06:00 -16,4 C 90 % 1037,5 hPa 0,0 l/m N 0,00 h 0 W/m 0,9 km/h (0 Bft)
07.01.2017 07:00 -15,7 C 90 % 1037,3 hPa 0,0 l/m N 0,00 h 0 W/m 0,0 km/h (0 Bft)
07.01.2017 08:00 -15,4 C 91 % 1037,8 hPa 0,0 l/m N 0,00 h 13 W/m 0,0 km/h (0 Bft)
07.01.2017 09:00 -14,5 C 91 % 1037,7 hPa 0,0 l/m N 0,00 h 57 W/m 0,0 km/h (0 Bft)
07.01.2017 10:00 -13,1 C 91 % 1037,3 hPa 0,0 l/m NO 0,25 h 134 W/m 2,7 km/h (1 Bft)
07.01.2017 11:00 -11,1 C 92 % 1037,1 hPa 0,0 l/m N 0,42 h 181 W/m 1,1 km/h (0 Bft)
07.01.2017 12:00 -8,8 C 92 % 1036,1 hPa 0,0 l/m O-NO 0,75 h 194 W/m 3,9 km/h (1 Bft)
07.01.2017 13:00 -6,9 C 89 % 1035,1 hPa 0,0 l/m S-SW 0,92 h 188 W/m 7,9 km/h (2 Bft)
07.01.2017 14:00 -6,3 C 87 % 1035,0 hPa 0,0 l/m S 0,00 h 125 W/m 6,9 km/h (2 Bft)
07.01.2017 15:00 -6,5 C 87 % 1034,8 hPa 0,0 l/m S-SW 0,00 h 60 W/m 9,8 km/h (2 Bft)
07.01.2017 16:00 -6,8 C 89 % 1034,8 hPa 0,0 l/m S-SW 0,08 h 16 W/m 12,5 km/h (3 Bft)
07.01.2017 17:00 -6,8 C 91 % 1034,4 hPa 0,0 l/m S-SW 0,00 h 0 W/m 12,1 km/h (2 Bft)
07.01.2017 18:00 -6,8 C 92 % 1034,2 hPa 0,0 l/m S-SW 0,00 h 0 W/m 9,1 km/h (2 Bft)
07.01.2017 19:00 -6,6 C 92 % 1034,2 hPa 0,0 l/m S-SW 0,00 h 0 W/m 3,2 km/h (1 Bft)
07.01.2017 20:00 -6,4 C 92 % 1033,6 hPa 0,0 l/m S-SW 0,00 h 0 W/m 5,4 km/h (1 Bft)
07.01.2017 21:00 -6,2 C 92 % 1033,2 hPa 0,0 l/m S-SW 0,00 h 0 W/m 3,2 km/h (1 Bft)
07.01.2017 22:00 -5,9 C 92 % 1032,7 hPa 0,0 l/m S-SW 0,00 h 0 W/m 6,4 km/h (2 Bft)
07.01.2017 23:00 -5,7 C 92 % 1032,0 hPa 0,0 l/m S-SW 0,00 h 0 W/m 7,5 km/h (2 Bft)
08.01.2017 00:00 -5,7 C 93 % 1031,6 hPa 0,0 l/m S-SW 0,00 h 0 W/m 10,0 km/h (2 Bft)
08.01.2017 01:00 -5,5 C 94 % 1031,0 hPa 0,2 l/m SW 0,00 h 0 W/m 12,2 km/h (2 Bft)
08.01.2017 02:00 -5,2 C 94 % 1030,5 hPa 0,0 l/m SW 0,00 h 0 W/m 11,0 km/h (2 Bft)
08.01.2017 03:00 -4,9 C 95 % 1030,4 hPa 0,2 l/m SW 0,00 h 0 W/m 9,1 km/h (2 Bft)
08.01.2017 04:00 -4,6 C 95 % 1030,2 hPa 0,2 l/m SW 0,00 h 0 W/m 9,5 km/h (2 Bft)
08.01.2017 05:00 -4,4 C 95 % 1030,0 hPa 0,0 l/m SW 0,00 h 0 W/m 9,5 km/h (2 Bft)
08.01.2017 06:00 -4,3 C 96 % 1030,0 hPa 0,0 l/m SW 0,00 h 0 W/m 8,9 km/h (2 Bft)
08.01.2017 07:00 -4,2 C 96 % 1030,2 hPa 0,0 l/m S-SW 0,00 h 0 W/m 6,9 km/h (2 Bft)
08.01.2017 08:00 -4,0 C 96 % 1030,5 hPa 0,0 l/m S-SW 0,00 h 11 W/m 8,2 km/h (2 Bft)
08.01.2017 09:00 -3,6 C 96 % 1030,8 hPa 0,0 l/m S-SW 0,00 h 38 W/m 7,6 km/h (2 Bft)
08.01.2017 10:00 -2,9 C 96 % 1031,1 hPa 0,0 l/m S-SW 0,00 h 64 W/m 6,3 km/h (2 Bft)
08.01.2017 11:00 -2,0 C 96 % 1031,1 hPa 0,0 l/m S-SW 0,00 h 110 W/m 8,3 km/h (2 Bft)
08.01.2017 12:00 -1,2 C 96 % 1030,6 hPa 0,2 l/m S-SW 0,00 h 105 W/m 7,6 km/h (2 Bft)
08.01.2017 13:00 -0,6 C 95 % 1030,0 hPa 0,4 l/m S-SW 0,00 h 137 W/m 5,9 km/h (2 Bft)
08.01.2017 14:00 -0,3 C 93 % 1030,4 hPa 0,0 l/m S-SW 0,00 h 88 W/m 5,1 km/h (1 Bft)
08.01.2017 15:00 -0,5 C 93 % 1030,8 hPa 0,0 l/m S-SW 0,00 h 46 W/m 3,6 km/h (1 Bft)
08.01.2017 16:00 -0,9 C 93 % 1031,0 hPa 0,0 l/m S-SW 0,00 h 11 W/m 3,6 km/h (1 Bft)
08.01.2017 17:00 -1,3 C 94 % 1031,3 hPa 0,0 l/m N 0,00 h 0 W/m 0,0 km/h (0 Bft)
08.01.2017 18:00 -1,4 C 95 % 1031,6 hPa 0,0 l/m N 0,00 h 0 W/m 0,0 km/h (0 Bft)
08.01.2017 19:00 -1,6 C 95 % 1031,3 hPa 0,0 l/m N 0,00 h 0 W/m 0,0 km/h (0 Bft)
08.01.2017 20:00 -1,8 C 95 % 1031,0 hPa 0,0 l/m N 0,00 h 0 W/m 0,0 km/h (0 Bft)
08.01.2017 21:00 -1,9 C 95 % 1030,9 hPa 0,0 l/m N 0,00 h 0 W/m 0,0 km/h (0 Bft)
08.01.2017 22:00 -2,1 C 95 % 1031,0 hPa 0,0 l/m N 0,00 h 0 W/m 0,0 km/h (0 Bft)
08.01.2017 23:00 -2,2 C 96 % 1030,8 hPa 0,0 l/m N 0,00 h 0 W/m 0,0 km/h (0 Bft)
Min-Datum _ 07.01.17 06.01.17 04.01.17 - - - - 02.01.17
_ Min-Zeit 06:05 15:20 15:05 - - - - 00:05
Minimum _ -16,8 C 75 % 1015,5 hPa - - - - 0,0 km/h (0 Bft)
Max-Datum _ 03.01.17 02.01.17 06.01.17 05.01.17 - 02.01.17 05.01.17 04.01.17
_ Max-Zeit 15:00 08:20 10:20 13:00 - 12:45 11:00 10:10
Maximum _ 0,9 C 99 % 1040,3 hPa 1,6 l/m - 0,08 h 471 W/m 46,7 km/h
W-SW (6 Bft)
Durchschnitt _ -4,6 C 93 % 1028,1 hPa #10,6 l/m SW #15:20 h 100 W/m 7,6 km/h (2 Bft)